This is the latest recevied weather packets stored in our database for station/object KE0FIN. If no packets are shown the sender has not sent any weather packets the latest 1 day(s).
| Time | Temp. | Humidity | Pressure | Rain* | Wind** | Luminosity | Snow |
|---|---|---|---|---|---|---|---|
| 1777973557 | 12.78° C | 53% | 1057.9 hPa | 0 mm | 1.79 m/s, 101° | 0 W/m² | - |
| 1777973253 | 13.33° C | 53% | 1057.6 hPa | 0 mm | 2.24 m/s, 64° | 0 W/m² | - |
| 1777972952 | 13.33° C | 54% | 1057.5 hPa | 0 mm | 0.89 m/s, 133° | 0 W/m² | - |
| 1777972649 | 13.33° C | 55% | 1057.5 hPa | 0 mm | 0.89 m/s, 117° | 0 W/m² | - |
| 1777972347 | 13.33° C | 55% | 1057.4 hPa | 0 mm | 0.45 m/s, 122° | 0 W/m² | - |
| 1777972044 | 13.33° C | 56% | 1057.4 hPa | 0 mm | 1.79 m/s, 60° | 0 W/m² | - |
| 1777971743 | 13.33° C | 57% | 1057.4 hPa | 0 mm | 1.79 m/s, 102° | 0 W/m² | - |
| 1777971439 | 13.33° C | 58% | 1057.6 hPa | 0 mm | 1.34 m/s, 138° | 0 W/m² | - |
| 1777971138 | 13.33° C | 60% | 1057.4 hPa | 0 mm | 2.24 m/s, 142° | 0 W/m² | - |
| 1777970835 | 13.33° C | 61% | 1057.5 hPa | 0 mm | 0.89 m/s, 113° | 0 W/m² | - |
| 1777970534 | 13.33° C | 61% | 1057.2 hPa | 0 mm | 1.34 m/s, 80° | 0 W/m² | - |
| 1777970230 | 13.33° C | 63% | 1057.2 hPa | 0 mm | 1.79 m/s, 77° | 0 W/m² | - |
| 1777969927 | 13.33° C | 64% | 1057.2 hPa | 0 mm | 1.34 m/s, 162° | 0 W/m² | - |
| 1777969623 | 13.33° C | 64% | 1057.3 hPa | 0 mm | 1.79 m/s, 77° | 0 W/m² | - |
| 1777969320 | 13.33° C | 64% | 1057.3 hPa | 0 mm | 0.89 m/s, 105° | 0 W/m² | - |
| 1777969015 | 13.33° C | 65% | 1057.1 hPa | 0 mm | 1.34 m/s, 52° | 0 W/m² | - |
| 1777968714 | 13.33° C | 66% | 1056.8 hPa | 0 mm | 0.89 m/s, 49° | 0 W/m² | - |
| 1777968410 | 13.89° C | 65% | 1056.8 hPa | 0 mm | 0 m/s | 0 W/m² | - |
| 1777968106 | 13.89° C | 65% | 1056.6 hPa | 0 mm | 1.34 m/s, 65° | 0 W/m² | - |
| 1777967802 | 13.89° C | 65% | 1056.4 hPa | 0 mm | 0.45 m/s, 121° | 0 W/m² | - |
| 1777967499 | 13.89° C | 65% | 1056.6 hPa | 0 mm | 1.34 m/s, 124° | 0 W/m² | - |
| 1777967196 | 13.89° C | 67% | 1056.7 hPa | 0 mm | 1.79 m/s, 129° | 0 W/m² | - |
| 1777966893 | 14.44° C | 68% | 1056.8 hPa | 0 mm | 0.89 m/s, 71° | 0 W/m² | - |
| 1777966591 | 14.44° C | 68% | 1056.8 hPa | 0 mm | 0.89 m/s, 96° | 0 W/m² | - |
| 1777966289 | 14.44° C | 69% | 1057.1 hPa | 0 mm | 1.34 m/s, 162° | 0 W/m² | - |
* Rain latest hour (hover to see other rain measurements)
** Current wind speed in m/s (hover to see current wind gust speed)